Flag for U.S.A. Weather past 2 weeks in West Palm Beach, Florida, U.S.A.

Now
73 °F

Light rain. Fog.


Feels Like: 70 °F
Forecast: 71 / 78 °F
Wind: 5 mph from Southwest

Location: Palm Beach International Airport

Current Time: Dec 26, 2014 at 8:40:46 PM

Latest Report: Dec 26, 2014 at 7:53 PM


Visibility: 4 mi

Pressure: 30.17 "Hg

Humidity: 94%

Dew point: 71 °F

Location of West Palm BeachLocation

Historic Weather in West Palm Beach — Graph

°F

West Palm Beach temperature yesterday

Maximum temperature yesterday: 78 °F (at 12:53 AM)
Minimum temperature yesterday: 66 °F (at 11:53 PM)
Average temperature yesterday: 70 °F

Past Weeks' High & Low Weather Summary

 TemperatureHumidityPressure
High84 °F (Dec 24, 12:53 PM)100% (Dec 18, 6:55 AM)30.24 "Hg (Dec 18, 6:55 AM)
Low49 °F (Dec 12, 6:53 AM)31% (Dec 12, 2:53 PM)29.89 "Hg (Dec 24, 3:53 PM)
Average68 °F72%30.07 "Hg
* Reported Dec 11 6:53 PM — Dec 26 6:53 PM, West Palm Beach, Weather by CustomWeather, © 2014

Note: Actual official high and low records may vary slightly from our data, if they occured in-between our weather recording intervals... More about our weather records

Advertising

West Palm Beach weather history for previous 24 hours

 ConditionsComfort  
Time TempWeatherWind HumidityBarometerVisibility
6:53 PM
Dec 26
75 °FMostly cloudy.10 mph90%30.16 "Hg10 mi
5:53 PM74 °FLight rain. Mostly cloudy.6 mph94%30.15 "Hg9 mi
4:53 PM74 °FFog.7 mph91%30.14 "Hg3 mi
3:53 PM74 °FFog.7 mph91%30.13 "Hg2 mi
2:53 PM75 °FOvercast.10 mph85%30.13 "Hg7 mi
1:53 PM76 °FOvercast.9 mph77%30.13 "Hg10 mi
12:53 PM76 °FOvercast.9 mph77%30.14 "Hg10 mi
11:53 AM75 °FMostly cloudy.7 mph79%30.17 "Hg8 mi
10:53 AM72 °FMore clouds than sun.5 mph84%30.19 "Hg7 mi
9:53 AM70 °FOvercast.6 mph79%30.20 "Hg10 mi
8:53 AM68 °FOvercast.6 mph78%30.18 "Hg10 mi
7:53 AM66 °FOvercast.8 mph81%30.16 "Hg10 mi
6:53 AM65 °FPassing clouds.6 mph85%30.15 "Hg10 mi
5:53 AM65 °FPassing clouds.8 mph85%30.14 "Hg10 mi
4:53 AM65 °FOvercast.9 mph85%30.14 "Hg10 mi
3:53 AM65 °FPassing clouds.9 mph85%30.14 "Hg10 mi
2:53 AM64 °FPartly cloudy.8 mph84%30.15 "Hg10 mi
1:53 AM65 °FPassing clouds.8 mph81%30.15 "Hg10 mi
12:53 AM65 °FPassing clouds.7 mph78%30.15 "Hg10 mi
11:53 PM
Dec 25
66 °FPassing clouds.9 mph75%30.16 "Hg10 mi
10:53 PM67 °FPassing clouds.5 mph79%30.16 "Hg10 mi
9:53 PM68 °FPassing clouds.No wind70%30.16 "Hg10 mi
8:53 PM69 °FOvercast.3 mph70%30.16 "Hg10 mi
Weather by CustomWeather, © 2014

See weather overviewHow to use our weather pages